Regional Weather Roundup
Issued by NWS Bismarck, ND

Home | Current Version | Previous Version | Text Only | Print | Product List | Glossary On
Versions: 1 2 3 4 5 6 7 8 9 10 11 12 13 14 15 16 17 18 19 20 21 22 23 24 25 26 27 28 29 30 31 32 33 34 35 36 37 38 39 40 41 42 43 44 45 46 47 48 49 50
000
ASUS43 KBIS 171920
RWRBIS

NWR BROADCAST TEXT
NATIONAL WEATHER SERVICE BISMARCK ND
200 PM CDT THU APR 17 2014

NOTE: "FAIR" INDICATES FEW OR NO CLOUDS BELOW 12,000 FEET WITH NO
SIGNIFICANT WEATHER AND/OR OBSTRUCTIONS TO VISIBILITY.


CITY           SKY/WX    TMP DP  RH WIND       PRES   REMARKS
WILLISTON      PTSUNNY   42  26  53 SE17G26   30.12F
MINOT          CLOUDY    39  15  37 E17       30.22F
MINOT AFB      CLOUDY    38  18  44 SE14      30.22F
BISMARCK       CLOUDY    42  17  36 S12       30.24F
DICKINSON      CLOUDY    36  25  64 SE22      30.11F
GARRISON         N/A     38  16  40 S12       30.21F
HETTINGER ARPT CLOUDY    32  26  78 SE20G26   30.14F
JAMESTOWN      SUNNY     40   8  26 CALM      30.27F
CARRINGTON     FAIR      39  14  35 SE7       30.28F
CROSBY         FAIR      37  23  56 SE23      30.13F
HARVEY         FAIR      37  14  38 SE9       30.26F
HAZEN          CLOUDY    41  18  38 SE17      30.21F
LINTON         MOCLDY    45  18  33 S10G17    30.22F
MANDAN         CLOUDY    39  16  38 SE12G21   30.23S
OAKES          FAIR      41   9  26 NW7       30.28F
RUGBY          FAIR      37  14  38 S7        30.26F
STANLEY        CLOUDY    36  19  51 S17G23    30.17F
TIOGA          CLOUDY    36  19  51 SE24      30.17F
WATFORD CITY   MOCLDY    41  25  52 SE20G25   30.09F
$$

CITY           SKY/WX    TMP DP  RH WIND       PRES   REMARKS
GRAND FORKS    SUNNY     40  11  30 VRB7      30.33F
GRAND FORKS AF SUNNY     39   8  27 NE9       30.33F
DEVILS LAKE    SUNNY     36   9  32 SE8       30.29F
FARGO          SUNNY     42  14  32 MISG      30.31F
CANDO          FAIR      37   1  22 SE9       30.29F
CAVALIER       FAIR      37   7  28 N7        30.34F
GRAFTON        FAIR      37   9  30 NE6G21    30.34F
GWINNER        CLEAR     43  12  28 NE6       30.30F
LANGDON        FAIR      39   5  24 SE5       30.28F
ROLLA          FAIR      34  12  40 S3        30.28F
WALHALLA         N/A     37   5  25 N9        30.34F
$$

CITY           SKY/WX    TMP DP  RH WIND       PRES   REMARKS
ABERDEEN       SUNNY     43  16  33 N7        30.29F
MOBRIDGE       PTSUNNY   43  17  35 S17       30.21F
BUFFALO          N/A     44  31  60 SE21      30.00F
RAPID CITY     MOSUNNY   49  33  54 S21G28    30.06F
GLASGOW        PTSUNNY   50  29  44 SE15G30   29.95F
SIDNEY         PTSUNNY   46  28  49 SE16G22   30.08F
WOLF POINT     PTSUNNY   50  28  42 E15G22    30.01F
GLENDIVE       PTSUNNY   48  32  53 E10       30.02F
MILES CITY     MOSUNNY   55  34  45 SE8       29.95F
BAKER          MOSUNNY   46  33  60 SE22G30   30.04F
$$

CITY           SKY/WX    TMP DP  RH WIND       PRES   REMARKS
BILLINGS       MOSUNNY   55  32  41 VRB3      29.90F
GREAT FALLS    CLOUDY    50  32  50 SE13      29.83F
REGINA         CLOUDY    37  19  48 SE24G33   30.11F
ESTEVAN        CLOUDY    37  21  52 SE16      30.16F
$$




USA.gov is the U.S. government's official web portal to all federal, state and local government web resources and services.